Torna al catalogo

STARLINK-2047

AttivoComunicazioniVLEO
NORAD 47355·PAYLOAD·🇺🇸 United States

Lanciato Jan 20, 2021 da Cape Canaveral Space Force Station

Loading…

Prossimi Passaggi (prossime 24 ore)

TLE

AggiornatoSource: CelesTrak SupGP

Epoca: Sep 15, 2026, 01:08 UTC

1 47355C 21005G   26258.04770833 -.00026905  00000+0 -86528-3 0  2580
2 47355  53.1592 209.7610 0001430  88.1825 269.3757 15.31711964    14

Traccia STARLINK-2047 in tempo reale con AllMySat

Download on the App Store